Theta_e
320 320 319 319 319 318 318 318 318 318 317 317 316 316 316 317 317 319 320 320 322 324 325 327 326 325 325 327 327 327 328 325 325 318 309 309 308 310 309 309 308 308 307
317 318 318 318 318 317 317 318 317 317 316 315 315 315 316 316 317 318 319 321 322 324 325 322 321 322 322 323 321 322 320 319 317 317 305 306 306 306 306 306 306 306 305
316 315 316 316 316 316 316 316 316 316 315 314 314 314 316 316 317 317 320 322 322 321 319 317 315 316 317 318 318 317 316 315 314 311 304 304 304 304 303 303 303 303 303
313 313 313 313 314 314 313 314 315 315 314 312 312 312 313 315 316 317 320 320 319 316 313 311 310 311 313 314 314 313 311 309 306 304 303 302 302 302 302 301 300 300 300
312 311 311 311 312 312 312 312 312 313 312 311 310 310 312 313 315 317 317 319 316 311 309 307 306 306 305 308 310 308 307 304 303 303 303 302 301 301 300 300 299 299 299
308 309 310 311 310 310 310 310 309 309 309 308 308 309 310 314 314 314 315 314 311 309 309 309 308 305 303 303 303 303 303 302 301 301 301 300 300 300 300 300 300 301 304
307 307 307 308 308 308 308 307 307 307 307 307 307 307 312 311 311 311 312 310 310 310 310 309 308 306 306 305 303 302 301 300 300 300 300 299 299 300 301 302 304 304 303
304 304 305 305 305 305 304 304 305 305 306 306 307 310 309 308 308 309 309 310 309 309 309 309 308 307 306 305 303 302 301 302 302 301 302 302 302 304 304 304 304 303 302
301 302 302 302 302 303 303 304 306 306 306 306 308 307 306 305 306 307 307 306 306 307 306 306 306 305 304 304 304 303 302 302 301 302 300 299 300 301 302 303 304 304 304
300 300 300 301 301 302 302 303 303 304 307 305 304 304 303 303 304 304 304 303 303 302 302 302 302 302 304 305 305 304 304 303 303 303 303 303 303 302 303 303 303 303 302
299 299 299 300 300 301 302 301 303 303 302 301 300 300 300 300 300 301 301 300 299 300 300 301 300 302 303 303 303 302 302 303 303 303 303 303 302 302 302 302 302 301 301
297 298 299 299 300 302 301 302 302 300 300 299 299 299 299 299 299 299 299 299 298 298 299 299 299 299 300 300 300 300 301 303 302 302 302 302 302 302 303 303 303 302 301
297 298 299 300 300 301 301 301 300 300 299 299 298 298 298 298 299 297 296 297 297 298 300 300 300 300 299 299 299 300 301 303 303 304 304 303 302 302 302 303 303 302 301
299 299 298 300 301 301 300 300 299 299 299 299 298 298 298 297 297 297 297 297 298 299 299 301 301 301 301 301 301 301 300 300 302 303 303 304 303 302 303 303 303 303 302
299 299 298 298 298 298 298 298 298 299 298 298 298 296 296 298 298 299 301 302 301 301 302 301 300 300 300 300 300 300 300 300 300 301 302 303 303 302 302 301 301 301 302
298 298 298 298 297 297 296 296 298 298 298 298 298 298 297 297 297 298 299 298 298 299 299 299 299 299 299 300 300 299 299 299 299 300 301 301 303 301 301 300 300 301 301
298 298 298 297 298 298 298 297 296 295 296 296 297 297 297 296 296 296 297 298 298 299 300 299 299 299 299 298 298 298 299 299 299 299 300 301 301 301 301 301 300 300 301
298 298 300 299 300 301 300 300 300 299 298 297 295 295 295 296 296 296 297 298 298 298 298 298 298 297 297 297 297 297 297 297 298 298 299 299 299 301 301 301 300 299 299
299 299 300 302 302 302 301 300 299 298 297 296 296 295 295 295 296 296 297 297 297 297 297 297 297 297 297 297 297 297 297 297 297 297 298 298 299 300 300 300 300 298 299
298 299 301 302 302 301 300 299 299 298 297 297 298 298 297 297 297 297 296 296 296 296 296 296 296 297 296 296 296 296 296 296 296 296 297 297 299 299 299 299 298 298 297
299 299 299 301 302 301 300 300 299 299 298 298 297 296 297 297 296 296 296 296 296 296 296 296 296 296 296 296 296 295 295 296 297 298 298 299 298 298 299 299 298 296 295
298 299 301 302 300 300 299 298 298 297 297 297 296 296 296 297 297 296 296 296 296 296 296 296 296 295 294 293 293 295 295 296 297 299 298 297 297 298 298 297 296 295 295
303 303 302 300 299 299 299 299 298 298 298 298 298 297 297 296 296 296 296 295 295 295 295 295 295 294 293 292 291 292 293 294 295 297 299 297 297 297 298 297 294 294 294
302 302 301 301 300 300 299 298 298 298 298 298 297 297 296 296 296 296 295 295 295 295 295 294 293 293 292 291 290 290 290 290 293 293 297 298 298 297 297 297 294 293 293
303 301 301 300 300 299 299 298 298 297 297 297 297 296 296 296 296 296 295 295 294 294 294 293 293 291 290 289 289 289 290 291 291 293 295 296 297 297 297 296 295 293 293
301 301 301 300 300 299 298 298 298 297 297 297 297 296 296 296 296 296 295 295 294 294 293 293 292 291 290 288 287 289 290 290 291 292 293 293 294 296 297 297 294 294 294
Wind_Speed
18 20 19 17 15 16 16 15 17 18 19 22 23 22 22 23 23 23 24 26 26 25 24 19 19 21 23 22 22 18 15 10 6 3 2 4 7 11 15 17 18 19 17
30 25 20 15 16 18 19 18 17 19 21 22 22 22 22 22 22 21 25 21 23 24 14 16 17 14 15 12 11 11 10 8 5 0 3 7 11 14 16 17 17 19 16
16 10 15 24 15 17 22 20 20 22 21 21 21 22 22 22 22 22 23 16 19 9 11 9 9 11 12 10 8 8 9 7 6 1 4 9 14 18 22 21 19 18 15
22 19 22 21 22 21 22 23 23 23 20 20 20 22 21 22 20 21 17 14 9 4 5 7 9 10 9 9 6 8 8 7 9 12 14 12 14 15 17 15 15 13 11
20 21 28 29 26 22 23 24 22 20 19 21 22 21 21 20 18 15 16 9 4 7 9 13 16 16 16 12 9 11 9 10 12 13 13 13 12 10 9 12 13 11 9
26 23 24 25 24 23 23 22 19 19 22 23 22 19 23 20 15 18 8 5 10 12 13 12 14 18 24 24 22 20 17 16 18 17 16 15 14 12 12 8 3 2 2
24 26 29 26 25 23 21 20 22 22 24 21 17 20 17 15 13 3 5 10 12 12 9 8 11 12 16 19 25 27 28 24 20 18 17 14 13 8 5 1 4 8 7
27 28 26 21 19 18 20 22 20 18 15 15 15 11 10 6 3 7 10 13 15 14 10 12 12 13 13 15 18 21 23 22 17 14 12 9 7 8 8 8 7 6 6
22 22 20 18 15 17 15 14 10 10 12 13 5 3 4 6 10 16 20 22 17 14 17 13 13 12 12 13 16 19 19 20 21 23 21 17 15 12 10 9 8 4 4
18 17 16 16 12 13 17 9 10 10 2 7 11 12 15 17 16 20 24 25 23 19 15 17 16 12 7 11 13 14 15 14 11 8 10 12 11 15 16 17 15 12 11
16 13 12 10 9 11 4 6 6 5 15 18 20 21 23 24 23 21 17 24 26 24 18 16 13 16 19 18 15 13 10 9 7 10 12 14 15 15 16 14 15 16 13
12 10 9 6 6 5 7 0 9 17 19 19 22 22 26 28 26 25 24 23 21 19 16 13 20 21 18 13 11 8 6 9 10 11 13 14 13 12 11 12 12 12 10
6 6 5 4 4 4 9 15 18 18 17 16 18 19 21 26 25 27 25 23 20 20 22 22 17 14 17 18 18 16 13 12 11 12 11 10 10 10 10 8 5 5 6
10 10 8 7 10 14 18 18 18 17 18 18 19 20 22 24 22 23 20 22 18 16 12 9 11 12 10 8 11 13 16 15 14 13 12 10 11 15 14 11 10 13 10
12 15 20 24 24 24 22 22 25 22 21 21 21 22 22 19 16 9 10 12 14 9 11 11 12 11 12 13 14 15 16 15 15 14 13 11 13 17 16 16 12 12 13
19 18 19 20 22 24 27 32 30 30 26 24 22 18 19 17 14 14 19 20 19 16 16 14 11 12 14 15 15 16 17 17 16 15 14 14 15 15 12 14 12 11 12
21 20 22 24 24 25 26 29 28 32 30 28 25 23 22 24 26 26 23 18 14 13 16 16 17 17 17 17 17 18 18 17 16 16 15 16 15 14 15 13 13 13 14
26 24 23 25 26 28 28 26 25 24 23 23 22 22 22 20 17 15 11 13 19 19 19 18 18 17 17 18 18 18 18 18 18 17 17 16 15 18 17 14 15 13 13
25 22 19 21 23 25 26 26 26 26 25 25 22 20 23 23 22 21 21 19 19 19 19 18 18 19 19 19 18 18 18 18 18 18 17 15 17 18 17 15 15 13 14
27 24 22 24 23 24 24 24 24 24 23 21 19 17 14 16 19 20 20 20 20 20 20 20 20 20 20 20 20 20 20 20 19 18 17 15 20 19 17 15 15 13 13
21 21 21 19 20 21 21 22 21 21 21 20 19 16 16 19 20 21 21 21 21 21 21 21 21 21 21 21 21 20 21 21 20 18 17 24 20 19 17 16 14 14 12
22 14 13 22 20 21 22 22 23 23 22 22 21 19 20 21 21 21 21 21 21 21 20 20 21 22 23 22 20 19 21 22 21 20 21 21 19 17 17 17 15 14 16
15 18 21 21 22 21 22 22 21 20 20 19 19 20 20 21 20 21 21 21 21 21 22 22 21 21 21 22 22 21 18 21 22 21 18 18 17 18 16 16 18 15 12
18 17 18 18 19 20 21 21 21 20 20 20 20 20 20 19 20 20 19 19 20 20 20 21 22 22 21 21 22 21 21 22 19 19 19 15 18 17 18 16 19 17 16
17 17 18 18 19 19 19 19 19 19 19 19 19 19 18 18 18 18 18 19 19 19 20 19 19 20 21 21 21 20 23 24 24 21 19 19 17 17 16 17 17 18 17
16 16 17 17 17 17 17 18 18 18 18 17 17 17 17 17 18 18 18 18 18 18 18 18 19 20 19 20 20 19 21 22 24 24 19 20 20 19 16 15 20 20 18
Wind_Direction
264 266 269 268 274 277 272 271 282 289 292 293 294 296 295 294 293 291 292 290 283 288 291 298 309 306 299 295 295 299 309 326 295 320 34 75 79 108 109 110 107 105 102
284 285 267 260 272 282 282 279 282 287 288 291 293 294 292 294 292 296 296 294 296 297 323 317 309 308 302 308 323 329 330 326 296 75 59 67 95 106 104 101 99 100 98
318 302 288 283 289 286 286 290 287 279 284 290 294 294 294 295 293 297 298 303 306 331 324 334 341 337 328 331 332 332 327 328 339 92 102 96 94 102 103 98 91 91 90
295 312 310 307 288 282 290 289 282 276 279 294 295 301 293 293 306 305 298 297 306 21 37 19 10 6 354 345 10 10 9 29 51 79 93 80 86 92 95 89 76 80 73
293 301 290 289 283 287 286 285 288 297 285 294 295 291 291 298 300 298 296 283 141 101 79 66 60 55 53 52 53 46 51 63 75 80 83 77 70 60 66 88 83 77 61
285 296 284 280 291 286 284 279 285 287 286 291 289 287 294 298 294 297 286 173 139 119 107 100 86 67 65 68 72 76 75 78 72 74 70 71 62 78 85 82 103 153 122
282 279 284 287 284 280 280 285 282 282 284 281 275 280 292 289 296 275 178 155 131 129 120 124 102 92 83 80 73 70 71 73 79 85 85 86 92 101 93 98 58 64 64
277 279 280 281 283 280 278 277 273 275 274 269 272 286 286 289 185 145 141 132 120 109 101 92 96 89 84 84 78 75 70 71 71 69 72 72 56 52 52 52 46 75 91
282 278 280 280 275 271 267 289 283 288 276 282 252 276 141 111 126 125 123 115 103 92 82 90 95 91 82 88 88 86 82 78 73 72 72 77 81 65 40 10 352 348 98
268 268 269 268 260 260 271 278 308 311 299 126 112 121 115 107 118 120 117 99 91 86 81 73 76 67 89 91 84 83 82 79 82 100 84 73 71 62 52 42 32 37 34
269 269 262 259 258 259 257 270 312 109 118 113 107 102 105 107 105 109 104 93 84 80 73 75 67 74 75 77 76 69 64 77 84 83 81 76 60 57 52 50 53 46 50
253 243 243 237 248 312 173 169 134 121 110 103 99 96 98 107 109 103 105 99 101 98 88 87 91 90 81 74 72 90 119 69 74 80 66 55 61 50 51 49 52 57 53
186 184 180 188 151 92 112 121 114 111 104 98 99 98 94 100 102 102 100 108 103 99 98 101 103 91 77 67 60 46 47 44 49 48 65 71 74 62 32 359 15 44 47
122 124 138 149 124 112 113 111 103 100 100 101 101 96 97 100 103 109 113 116 103 96 102 122 113 88 75 64 55 51 53 46 36 33 32 55 88 72 45 37 30 21 38
104 95 92 98 100 91 87 88 90 94 100 100 102 106 110 106 109 116 124 120 106 107 111 99 78 69 69 61 56 52 41 41 38 31 25 29 49 48 37 31 29 24 21
90 91 97 96 94 94 93 90 97 104 106 104 110 105 107 107 101 99 102 96 90 85 86 82 83 70 57 54 50 51 43 35 30 30 27 21 51 47 46 32 28 23 26
89 91 91 98 99 99 97 93 89 88 92 93 95 100 101 104 101 101 99 99 108 93 75 69 63 55 51 47 45 40 36 34 30 30 26 20 22 66 50 36 32 22 25
87 93 97 99 103 102 101 101 96 91 91 87 84 94 99 100 98 103 98 86 77 69 66 63 59 55 50 48 48 42 39 30 31 30 29 24 17 51 40 35 34 35 25
91 89 98 105 103 105 101 98 97 98 98 101 97 87 86 82 75 71 78 78 74 70 66 62 56 52 49 47 45 44 39 36 32 32 31 23 23 38 40 32 31 30 31
93 92 94 99 99 102 105 107 104 103 106 107 103 100 97 91 84 80 75 72 69 65 62 58 54 52 48 44 41 39 37 33 31 34 34 25 44 38 25 41 29 26 23
100 98 97 103 102 100 96 96 93 88 89 88 85 82 84 83 79 75 73 68 66 62 59 56 51 47 43 39 41 39 38 34 31 33 41 41 38 31 28 34 32 29 27
112 113 108 97 101 101 100 101 100 99 99 97 94 88 86 81 78 74 70 66 63 59 56 55 52 48 43 40 35 38 37 36 30 28 41 32 29 25 40 30 27 26 28
107 97 95 95 100 105 100 99 100 99 96 92 89 85 81 79 76 74 71 67 64 60 56 52 50 48 45 43 40 40 36 28 27 23 41 40 30 26 35 39 29 28 30
105 102 98 96 93 93 91 91 89 88 90 87 85 83 82 81 78 74 71 67 64 60 57 55 53 51 48 45 42 42 38 34 21 15 26 48 37 33 37 37 32 37 40
99 101 101 100 100 100 97 93 92 93 92 92 91 89 87 84 81 76 71 68 65 63 59 56 53 50 47 45 43 45 49 44 36 30 32 34 40 37 47 44 35 44 46
99 97 96 95 95 96 97 97 96 96 95 93 91 90 88 85 81 77 74 71 68 65 61 57 52 49 46 41 47 52 49 43 38 33 37 36 36 35 44 53 43 47 48